FENGYUN 1C DEB, 32334

Orbit data source: Space-Track

FENGYUN 1C DEB, 32334 is space debris in SSO originally from a launch on Mon, 10 May 1999 UTC launched from the Taiyaun Space Center, China (TSC). Fengyun 1C debris stems from the Chinese weather satellite Fengyun-1C, which was intentionally destroyed by a Chinese anti-satellite missile in 2007. This event dramatically increased the amount of space debris, with thousands of trackable fragments posing hazards to satellites and human spaceflight. The Fengyun 1C debris cloud has become a focal point in discussions about space sustainability and the need for international regulations to prevent the creation of new debris.

Loading next visibility...
Identifier
32334, 1999-025CYB
Orbit
SSO
Country
Flag of CNCN / PRC
Related business
Manufacturer
Unknown
Mission
Spacecraft
Bus & Motor
Unknown
Mass
Unknown
Launch date (UTC)
1999-05-10 (27 years ago)
Launch vehicle
Unknown
Launch site
Taiyaun Space Center, China (TSC)
Object type
Payload
Rocket body
Debris
Shape & HBR
Unknown shape, 0.1 m
Radar Cross Section
Small (<0.1 m²)

Expand to show TLE details & history
Last TLE update: 4 days ago

TLE from 4 days ago
0 FENGYUN 1C DEB
1 32334U 99025CYB 26203.88393002  .00000627  00000-0  43327-3 0  9993
2 32334  99.2275 266.0994 0067376  30.5883 329.9184 14.01921108970529
Epoch: 2026-07-22T21:12Z
TLE epoch observation values (Epoch: 2026-07-22T21:12:51.553Z)
Latitude
-0.00005°
Longitude
7.25173°
Altitude
847.741 km
Speed
7.45 km/s
True Right ascension
17h 44m 23s
True Declination
0° 00' 00"
Sunlit
Object was in full shadow at epoch
Visualization orbit readout
Latitude
Unknown
Longitude
Unknown
Altitude
Unknown
Speed
Unknown
Apparent Right ascension
Unknown
Apparent Declination
Unknown
Sunlit
N/A
Visualization observer readout
Local Sidereal Time
22:26:44
Azimuth
Unknown
Elevation
Unknown
Doppler factor
Unknown
Orbital elements
Apogee altitude
933.29 km
Perigee altitude
835.426 km
Semi-major axis
7,262.495 km
Eccentricity
0.00674
Inclination
99.2275°
RAAN
266.0994°
Arg. of periapsis
30.5883°
True anomaly
329.52857°
Mean anomaly
329.9184°
Eccentric anomaly
329.72377°
Mean motion
3.50683 °/min
Orbital period
102.66 mins
BSTAR
0.00043327
Loading maneuver chart data...
Computing Atmospheric mass density...

Documentation

Showing up to 5 results
|